Wind_Speed
20 22 25 24 22 21 21 19 19 20 22 21 20 19 16 16 16 15 15 15 15 15 14 13 13 12 10 9 9 10 8 4 5 8 8 12 13 8 12 15 14 15 17
18 25 26 25 23 23 22 20 19 20 20 20 19 18 17 17 16 16 15 14 14 15 14 13 12 11 10 9 9 8 6 6 8 9 11 15 11 13 14 15 17 17 17
20 27 28 25 24 24 24 22 21 21 21 21 20 19 18 18 17 16 14 13 13 14 14 14 12 11 10 9 9 8 7 7 8 8 9 9 13 15 15 15 16 16 16
19 29 30 27 26 25 24 22 22 21 21 21 21 20 18 18 17 16 15 14 14 14 13 13 13 11 11 10 9 8 7 8 8 8 8 10 11 14 15 15 15 14 16
21 28 30 28 27 26 24 23 22 21 20 20 20 19 18 18 17 16 15 15 14 13 14 13 13 12 11 10 9 8 8 8 9 9 9 9 9 13 14 14 13 13 14
20 23 29 29 27 26 25 24 22 21 20 20 19 18 17 18 17 16 15 14 13 13 13 12 12 11 10 9 9 9 9 9 8 7 7 9 8 11 13 14 16 15 14
20 23 27 29 28 27 26 24 22 21 20 19 18 17 17 17 17 16 15 14 13 13 12 12 11 10 10 9 9 9 9 9 7 7 7 7 7 11 12 14 14 14 14
20 24 28 29 29 27 26 24 22 22 21 20 19 18 18 18 17 16 15 14 13 12 11 11 11 11 10 10 9 8 8 8 8 8 6 7 10 14 14 15 16 13 12
22 27 29 30 30 27 26 24 23 22 21 20 20 19 19 18 18 17 16 15 13 12 11 11 11 11 10 9 8 7 7 7 8 5 5 8 10 15 17 16 11 9 10
22 27 28 31 31 29 27 25 24 23 22 21 20 20 20 19 19 18 17 16 14 13 11 12 12 12 10 9 7 7 7 7 4 4 6 8 8 11 15 12 20 15 10
18 23 23 28 31 31 29 27 25 24 23 22 21 21 21 21 21 20 18 17 14 14 13 13 13 12 11 10 8 8 7 4 5 5 6 6 7 7 8 18 19 16 11
16 20 22 27 28 24 21 25 29 27 27 26 25 24 24 21 20 19 19 18 16 15 14 15 15 14 12 10 10 9 6 7 5 6 6 7 7 12 12 10 13 15 12
16 19 22 23 27 28 25 23 28 24 26 28 28 27 26 21 19 20 18 21 20 19 17 18 18 16 14 13 11 9 8 8 6 6 11 7 8 11 15 12 11 11 13
17 20 23 26 26 28 24 27 31 26 33 30 26 27 24 22 22 21 19 19 19 18 16 17 16 15 17 15 12 11 10 9 7 7 12 9 10 11 13 16 12 11 16
20 21 24 27 29 28 30 25 28 26 30 35 32 32 30 23 22 21 20 20 19 19 19 18 17 18 16 16 14 12 11 10 10 8 9 11 13 13 14 15 14 15 14
22 21 24 29 34 34 34 31 30 33 26 35 34 33 32 29 24 23 22 25 21 21 19 18 18 18 17 16 16 15 13 11 10 10 9 12 14 15 14 14 15 17 13
25 23 22 28 34 41 40 37 33 32 32 33 35 33 32 32 31 30 28 24 27 22 22 20 19 19 17 17 16 15 16 17 13 12 11 11 13 17 16 15 16 18 17
26 27 25 28 31 39 43 40 32 31 36 32 34 34 35 35 33 30 31 31 24 26 26 26 26 24 20 18 17 16 16 15 15 14 13 14 14 13 15 18 18 17 20
28 27 28 29 31 35 41 38 35 32 36 35 34 34 35 37 35 31 31 30 29 27 27 28 28 26 25 19 17 17 17 17 17 17 16 15 16 17 14 15 18 19 20
28 27 28 30 30 34 35 38 29 29 37 36 37 36 33 34 36 34 31 29 29 29 29 30 29 28 27 21 19 18 18 17 17 17 17 17 16 16 16 16 18 22 22
24 20 25 29 31 32 34 35 33 32 35 33 34 35 35 34 34 35 33 32 30 31 31 30 29 29 29 24 23 24 25 25 27 25 20 22 21 20 18 18 18 22 22
20 23 21 25 32 33 35 36 37 34 31 30 28 31 34 36 36 36 36 36 32 32 32 32 31 31 30 29 27 23 19 20 29 32 26 24 21 21 21 22 21 20 23
15 17 16 16 26 33 37 35 32 28 25 25 28 30 33 35 35 36 37 34 32 34 34 34 32 32 32 31 28 18 10 15 12 12 23 25 25 24 24 23 22 23 25
14 13 10 12 20 31 38 35 36 34 30 28 26 25 28 35 35 34 34 32 30 35 35 34 32 30 30 30 27 27 25 16 10 9 10 16 21 25 27 27 21 21 23
11 6 7 0 9 20 26 37 34 30 24 18 22 23 29 32 33 33 33 34 37 39 35 34 31 29 27 25 25 21 28 26 24 21 19 11 13 17 18 19 23 22 18
10 5 4 4 5 19 28 34 20 23 18 20 22 18 21 25 26 29 34 37 40 40 35 30 27 26 28 28 27 26 23 23 28 28 24 22 22 19 18 19 22 23 24
Wind_Direction
191 194 189 188 187 184 180 177 171 171 171 172 172 170 169 167 163 159 158 154 153 153 157 158 160 163 165 169 169 165 165 172 163 154 157 149 145 165 151 149 139 140 141
191 195 192 189 188 186 181 180 178 176 176 175 175 173 172 171 169 165 165 162 159 157 159 160 161 165 168 169 167 176 185 184 172 170 161 154 161 174 159 153 144 150 145
197 195 192 192 189 188 182 183 182 180 178 176 176 176 176 173 171 171 170 168 163 159 161 164 164 168 172 168 169 178 180 176 174 173 168 157 161 169 164 163 161 151 149
198 196 193 193 191 191 185 186 186 184 181 177 176 177 179 176 174 174 172 167 168 164 166 171 170 172 172 168 172 177 183 181 181 175 155 175 166 169 168 165 155 155 151
187 192 196 195 192 194 190 191 191 188 184 182 180 180 180 179 178 175 170 168 170 171 173 176 176 176 179 180 182 185 192 191 178 163 177 177 175 170 171 166 158 160 154
181 183 198 197 194 197 193 194 195 193 190 187 187 185 183 184 182 178 172 171 173 177 180 182 183 184 189 191 189 188 188 188 174 169 185 179 172 179 177 174 167 160 156
183 188 196 199 198 200 197 198 199 198 197 194 193 192 190 189 186 182 178 176 180 184 186 186 190 192 192 193 188 183 185 181 149 190 185 175 181 176 185 181 173 163 157
194 197 198 199 203 203 201 201 204 202 201 200 199 198 196 194 191 188 185 185 186 187 188 192 196 192 190 185 182 184 188 184 167 192 184 184 190 182 183 181 164 161 161
215 206 204 200 204 207 205 206 206 207 205 204 203 202 201 198 195 194 194 193 192 193 194 197 193 189 188 185 183 185 186 184 183 194 186 199 194 199 167 90 118 166 164
223 209 208 204 204 207 207 209 209 208 209 207 207 206 204 202 199 199 200 200 198 195 198 199 196 190 189 188 184 182 185 183 177 198 202 210 214 221 198 237 178 176 184
231 217 209 206 207 208 209 210 210 211 211 209 209 208 206 203 202 203 203 206 207 202 199 202 200 197 192 193 188 188 188 182 211 214 221 223 240 229 202 183 178 196 201
244 222 213 209 208 204 206 208 209 211 210 209 209 208 208 202 201 203 207 206 209 210 207 204 206 204 201 198 199 196 183 213 197 237 233 236 237 189 175 224 233 223 231
260 233 220 216 211 207 204 207 207 207 208 210 209 210 206 203 205 200 205 205 205 208 209 208 208 210 200 201 198 200 210 208 213 244 249 240 227 221 238 195 185 216 209
273 240 230 217 214 211 205 208 213 209 209 206 205 207 204 204 209 203 202 201 201 208 204 207 212 206 216 213 209 211 211 208 224 235 269 244 233 234 252 231 231 244 223
270 253 231 222 216 214 210 208 209 210 217 213 212 214 214 208 212 207 206 204 205 205 205 205 210 219 214 217 218 221 222 222 224 227 244 257 250 247 252 240 239 225 223
269 255 237 223 225 218 215 213 213 213 213 218 216 215 217 215 215 209 209 214 206 209 208 208 212 218 217 220 225 227 228 231 235 232 239 261 249 246 249 255 244 235 205
264 255 244 229 232 230 224 218 218 215 214 219 220 219 218 220 223 224 221 215 223 215 214 211 211 219 219 222 227 232 236 243 241 241 241 243 258 250 249 251 252 243 233
268 254 247 236 223 232 229 222 216 217 217 218 219 222 222 223 224 225 226 226 223 223 224 227 228 231 221 226 228 232 238 239 245 247 248 244 251 251 245 245 251 247 249
269 259 247 236 225 222 230 223 217 217 221 219 221 222 224 225 226 228 227 228 227 232 230 233 234 232 228 226 232 234 236 239 245 250 246 244 243 243 253 248 241 244 259
269 261 247 235 228 220 222 220 213 215 225 223 227 227 230 227 230 231 230 229 229 231 233 233 234 233 233 231 234 239 243 244 247 248 246 246 245 245 245 247 246 246 255
283 275 247 234 227 217 210 207 210 213 221 222 228 231 233 234 235 236 237 233 230 232 235 236 235 234 233 228 236 242 247 258 260 256 250 254 251 250 248 253 251 253 258
295 278 257 234 227 221 211 209 213 215 216 220 222 228 234 238 237 237 238 237 233 232 234 235 233 233 234 234 235 242 253 264 260 255 247 249 245 246 249 258 256 250 262
303 286 277 252 221 221 213 208 207 210 211 215 219 225 231 233 238 239 237 236 236 232 235 237 235 236 238 238 231 225 229 245 255 260 241 244 248 247 250 251 257 255 263
311 288 277 269 230 209 213 210 203 203 208 217 226 228 232 238 237 236 236 232 231 237 234 237 238 236 237 237 235 231 234 248 238 243 238 253 249 251 251 255 249 257 253
327 311 241 294 221 208 211 208 209 198 211 220 230 229 240 246 244 237 237 234 235 240 236 239 241 238 235 227 236 236 235 236 242 250 259 244 249 246 246 248 259 248 263
349 2 68 192 160 203 200 206 202 248 219 216 222 236 246 254 254 249 241 239 241 242 238 240 242 248 249 243 234 236 235 232 237 237 248 252 256 257 247 245 257 258 262
Height
1490 1490 1493 1495 1499 1502 1506 1510 1512 1515 1516 1518 1518 1519 1521 1522 1524 1526 1527 1528 1529 1531 1533 1534 1536 1537 1538 1539 1540 1540 1541 1541 1541 1542 1541 1543 1545 1547 1544 1546 1550 1547 1549
1491 1489 1492 1495 1498 1502 1506 1510 1513 1515 1517 1519 1520 1521 1521 1523 1525 1526 1528 1529 1530 1531 1533 1535 1537 1538 1539 1540 1541 1541 1542 1542 1543 1542 1543 1544 1543 1547 1547 1546 1550 1549 1549
1490 1490 1493 1495 1498 1501 1505 1510 1513 1516 1518 1519 1521 1522 1523 1524 1526 1527 1528 1530 1531 1532 1534 1536 1537 1538 1539 1540 1541 1542 1542 1543 1543 1543 1545 1547 1546 1547 1547 1549 1552 1551 1552
1488 1490 1493 1496 1498 1501 1505 1509 1512 1515 1518 1519 1522 1523 1525 1526 1527 1528 1530 1531 1533 1533 1534 1536 1537 1538 1540 1541 1542 1542 1543 1543 1544 1545 1546 1547 1548 1547 1549 1552 1553 1554 1554
1487 1490 1492 1496 1498 1502 1504 1508 1512 1514 1517 1520 1522 1523 1525 1527 1528 1529 1530 1532 1533 1534 1535 1537 1538 1539 1540 1541 1542 1543 1543 1544 1545 1547 1549 1549 1547 1549 1550 1552 1553 1554 1558
1489 1492 1492 1497 1500 1503 1505 1508 1511 1514 1517 1519 1522 1524 1526 1528 1528 1530 1531 1532 1534 1535 1536 1537 1538 1539 1541 1542 1542 1543 1544 1544 1546 1549 1550 1548 1549 1550 1551 1554 1553 1556 1557
1489 1491 1493 1497 1499 1502 1506 1509 1511 1514 1518 1519 1521 1523 1526 1528 1529 1530 1531 1533 1534 1535 1536 1537 1538 1539 1541 1542 1542 1543 1544 1545 1548 1550 1550 1550 1549 1551 1552 1554 1554 1555 1558
1490 1491 1492 1496 1499 1502 1505 1508 1512 1514 1517 1520 1521 1523 1525 1527 1529 1531 1531 1533 1534 1535 1537 1537 1538 1539 1541 1541 1542 1543 1544 1545 1548 1550 1550 1549 1549 1550 1551 1553 1554 1558 1559
1490 1491 1492 1495 1499 1502 1505 1508 1511 1515 1517 1520 1522 1523 1525 1527 1529 1531 1532 1533 1534 1536 1536 1538 1538 1539 1541 1542 1543 1543 1544 1546 1548 1548 1550 1548 1549 1549 1551 1541 1555 1560 1561
1489 1490 1491 1494 1498 1501 1504 1508 1511 1513 1517 1519 1522 1523 1525 1526 1528 1530 1532 1533 1534 1536 1537 1538 1539 1539 1541 1542 1543 1543 1544 1546 1549 1550 1549 1549 1549 1549 1550 1550 1553 1557 1560
1489 1490 1492 1494 1497 1499 1503 1506 1509 1512 1515 1517 1520 1522 1524 1525 1527 1529 1530 1533 1535 1536 1536 1538 1539 1540 1541 1542 1543 1543 1544 1548 1550 1550 1548 1549 1549 1550 1550 1551 1553 1556 1557
1490 1490 1491 1492 1494 1498 1503 1504 1507 1509 1512 1514 1516 1518 1521 1524 1525 1528 1529 1531 1534 1535 1537 1538 1539 1539 1541 1542 1542 1543 1545 1548 1548 1550 1547 1548 1550 1551 1551 1552 1553 1556 1556
1488 1489 1490 1491 1492 1492 1496 1500 1503 1507 1509 1511 1512 1515 1518 1522 1524 1525 1527 1529 1531 1533 1535 1537 1537 1538 1540 1541 1544 1543 1545 1545 1548 1550 1546 1548 1549 1551 1551 1551 1552 1552 1556
1485 1485 1486 1487 1489 1490 1494 1494 1498 1502 1502 1505 1510 1511 1515 1518 1520 1522 1525 1527 1529 1531 1534 1536 1537 1538 1537 1539 1541 1542 1543 1544 1546 1548 1546 1546 1548 1549 1550 1552 1551 1552 1554
1479 1479 1480 1482 1483 1485 1487 1490 1493 1499 1500 1501 1504 1507 1510 1515 1517 1519 1522 1524 1526 1527 1530 1533 1535 1535 1536 1538 1539 1540 1541 1542 1543 1545 1546 1545 1545 1547 1548 1549 1550 1549 1550
1474 1474 1473 1475 1475 1478 1481 1485 1487 1489 1496 1499 1500 1502 1506 1510 1513 1516 1518 1519 1522 1524 1527 1529 1531 1531 1535 1536 1536 1537 1539 1540 1541 1542 1543 1544 1543 1544 1545 1546 1547 1548 1549
1468 1469 1468 1468 1468 1471 1474 1479 1481 1484 1489 1493 1497 1500 1502 1505 1507 1509 1513 1515 1517 1520 1523 1524 1526 1528 1531 1532 1534 1535 1535 1536 1537 1538 1539 1541 1541 1541 1542 1543 1544 1545 1546
1462 1461 1462 1462 1462 1464 1468 1473 1476 1480 1481 1487 1490 1495 1498 1500 1502 1505 1508 1510 1513 1515 1518 1519 1521 1523 1527 1529 1530 1532 1533 1534 1534 1535 1536 1537 1538 1537 1537 1539 1541 1542 1543
1454 1453 1454 1456 1455 1458 1462 1466 1470 1474 1476 1481 1484 1488 1491 1496 1499 1500 1502 1506 1509 1510 1513 1516 1518 1519 1522 1525 1527 1528 1529 1530 1530 1531 1532 1532 1532 1533 1535 1534 1536 1538 1539
1445 1444 1445 1447 1447 1450 1456 1460 1464 1468 1470 1474 1478 1481 1486 1490 1494 1496 1498 1501 1503 1506 1508 1511 1513 1516 1518 1521 1523 1525 1525 1525 1526 1526 1527 1527 1528 1528 1530 1530 1531 1532 1533
1436 1433 1436 1439 1441 1443 1446 1451 1457 1460 1464 1466 1472 1476 1480 1484 1488 1491 1494 1495 1497 1499 1502 1505 1509 1511 1513 1517 1519 1520 1520 1520 1520 1521 1522 1521 1522 1524 1524 1525 1526 1526 1527
1429 1426 1425 1429 1434 1436 1438 1440 1446 1453 1457 1460 1465 1469 1474 1476 1480 1484 1488 1490 1491 1494 1497 1500 1503 1506 1510 1512 1513 1516 1517 1517 1514 1514 1515 1515 1517 1519 1518 1519 1520 1521 1521
1426 1420 1418 1420 1425 1429 1432 1435 1438 1447 1452 1455 1456 1461 1464 1468 1472 1476 1481 1484 1486 1488 1489 1493 1497 1500 1503 1507 1510 1513 1514 1511 1510 1509 1507 1509 1510 1511 1513 1513 1514 1514 1514
1420 1416 1415 1416 1416 1420 1424 1427 1428 1431 1440 1446 1452 1454 1458 1461 1465 1469 1473 1477 1481 1481 1484 1487 1491 1494 1497 1499 1505 1505 1506 1508 1507 1506 1505 1503 1504 1505 1506 1507 1509 1508 1508
1417 1413 1412 1411 1410 1410 1415 1417 1419 1421 1434 1442 1446 1446 1450 1454 1460 1465 1466 1469 1472 1473 1478 1481 1485 1488 1491 1495 1497 1500 1499 1501 1502 1504 1501 1501 1500 1500 1502 1502 1502 1502 1503
1416 1412 1410 1409 1408 1406 1408 1413 1411 1414 1430 1436 1442 1441 1445 1449 1453 1457 1461 1462 1465 1467 1471 1475 1479 1481 1484 1487 1493 1494 1494 1494 1493 1495 1497 1497 1496 1497 1496 1496 1495 1496 1496